User: anonymous   Login
Location: Barcelona
(41.3830°N, 2.1830°E)
Time: 07:53:44
(UTC+02:00)
Language:

CAS-4A - Orbit

View from above orbital plane
View from above orbital plane
View from above satellite
View from above satellite

Ground track
Ground track

The orbit data is extracted from the following two-line orbital elements,

1 42761U 17034D   19290.83782229  .00000277  00000-0  30367-4 0  9996
2 42761  43.0189 284.8432 0013123 296.2402 129.2175 15.09734156129148
Epoch (UTC): 17 October 2019 20:06:27
Eccentricity: 0.0013123
inclination: 43.0189°
perigee height: 528 km
apogee height: 546 km
right ascension of ascending node: 284.8432°
argument of perigee: 296.2402°
revolutions per day: 15.09734156
mean anomaly at epoch: 129.2175°
orbit number at epoch: 12914

The dashed part of the orbit path shows where the satellite is in the earth's shadow,  

DLR